Time,TemperatureF,DewpointF,PressureIn,WindDirection,WindDirectionDegrees,WindSpeedMPH,WindSpeedGustMPH,Humidity,HourlyPrecipIn,Conditions,Clouds,dailyrainin,SoftwareType,DateUTC
2013-07-31 00:09:00,65.6,65.0,30.01,ESE,117,1.0,4.0,98,0.00,,,0.00,weatherlink.com 1.10,2013-07-31 05:09:00,
2013-07-31 00:24:00,65.6,65.0,30.01,SE,141,1.0,3.0,98,0.00,,,0.00,weatherlink.com 1.10,2013-07-31 05:24:00,
2013-07-31 00:39:00,65.7,65.0,30.00,SSE,153,2.0,4.0,98,0.00,,,0.00,weatherlink.com 1.10,2013-07-31 05:39:00,
2013-07-31 00:54:00,65.7,65.0,30.00,SE,126,1.0,3.0,98,0.00,,,0.00,weatherlink.com 1.10,2013-07-31 05:54:00,
2013-07-31 01:09:00,65.7,65.0,30.00,SE,125,0.0,3.0,98,0.00,,,0.00,weatherlink.com 1.10,2013-07-31 06:09:00,
2013-07-31 01:24:00,65.8,65.0,30.00,SSW,213,0.0,2.0,98,0.00,,,0.00,weatherlink.com 1.10,2013-07-31 06:24:00,
2013-07-31 01:39:00,65.8,65.0,29.99,SSE,149,1.0,3.0,98,0.00,,,0.00,weatherlink.com 1.10,2013-07-31 06:39:00,
2013-07-31 02:09:00,65.9,65.0,29.98,SSE,165,2.0,3.0,98,0.00,,,0.00,weatherlink.com 1.10,2013-07-31 07:09:00,
2013-07-31 02:24:00,65.9,66.0,29.98,SSE,158,0.0,2.0,99,0.00,,,0.00,weatherlink.com 1.10,2013-07-31 07:24:00,
2013-07-31 02:39:00,66.0,66.0,29.98,SSE,165,0.0,2.0,99,0.00,,,0.00,weatherlink.com 1.10,2013-07-31 07:39:00,
2013-07-31 02:54:00,66.1,66.0,29.99,SSW,193,0.0,1.0,99,0.00,,,0.00,weatherlink.com 1.10,2013-07-31 07:54:00,
2013-07-31 03:09:00,66.1,66.0,29.98,ESE,123,1.0,1.0,99,0.00,,,0.00,weatherlink.com 1.10,2013-07-31 08:09:00,
2013-07-31 03:24:00,66.2,66.0,29.98,ESE,113,0.0,1.0,99,0.00,,,0.00,weatherlink.com 1.10,2013-07-31 08:24:00,
2013-07-31 03:39:00,66.2,66.0,29.98,ESE,113,0.0,0.0,99,0.00,,,0.00,weatherlink.com 1.10,2013-07-31 08:39:00,
2013-07-31 03:54:00,66.2,66.0,29.98,ESE,113,0.0,1.0,99,0.00,,,0.00,weatherlink.com 1.10,2013-07-31 08:54:00,
2013-07-31 04:09:00,66.3,66.0,29.98,SE,125,0.0,1.0,99,0.00,,,0.00,weatherlink.com 1.10,2013-07-31 09:09:00,
2013-07-31 04:24:00,66.4,66.0,29.97,SSE,160,0.0,1.0,99,0.00,,,0.00,weatherlink.com 1.10,2013-07-31 09:24:00,
2013-07-31 04:39:00,66.4,66.0,29.97,SSE,156,0.0,3.0,99,0.00,,,0.00,weatherlink.com 1.10,2013-07-31 09:39:00,
2013-07-31 04:54:00,66.4,66.0,29.98,SW,225,1.0,2.0,99,0.00,,,0.00,weatherlink.com 1.10,2013-07-31 09:54:00,
2013-07-31 05:09:00,66.5,66.0,29.98,SW,215,0.0,2.0,99,0.00,,,0.00,weatherlink.com 1.10,2013-07-31 10:09:00,
2013-07-31 05:24:00,66.5,66.0,29.98,SW,219,1.0,2.0,99,0.00,,,0.00,weatherlink.com 1.10,2013-07-31 10:24:00,
2013-07-31 05:39:00,66.6,66.0,29.98,SSW,207,0.0,3.0,99,0.00,,,0.00,weatherlink.com 1.10,2013-07-31 10:39:00,
2013-07-31 05:54:00,66.7,66.0,29.98,SSW,210,1.0,3.0,99,0.00,,,0.00,weatherlink.com 1.10,2013-07-31 10:54:00,
2013-07-31 06:09:00,66.8,67.0,29.98,SW,221,0.0,3.0,99,0.00,,,0.00,weatherlink.com 1.10,2013-07-31 11:09:00,
2013-07-31 06:24:00,66.9,67.0,29.99,SW,232,0.0,1.0,99,0.00,,,0.00,weatherlink.com 1.10,2013-07-31 11:24:00,
2013-07-31 06:40:00,67.0,67.0,29.99,SW,229,0.0,1.0,99,0.00,,,0.00,weatherlink.com 1.10,2013-07-31 11:40:00,
2013-07-31 06:55:00,67.2,67.0,29.99,SW,215,2.0,2.0,99,0.00,,,0.00,weatherlink.com 1.10,2013-07-31 11:55:00,
2013-07-31 07:10:00,67.3,67.0,29.99,WSW,243,0.0,1.0,99,0.01,,,0.01,weatherlink.com 1.10,2013-07-31 12:10:00,
2013-07-31 07:25:00,67.5,67.0,29.99,West,262,2.0,2.0,99,0.01,,,0.01,weatherlink.com 1.10,2013-07-31 12:25:00,
2013-07-31 07:40:00,67.6,67.0,29.98,West,264,1.0,2.0,99,0.01,,,0.01,weatherlink.com 1.10,2013-07-31 12:40:00,
2013-07-31 07:55:00,67.8,68.0,29.98,SSW,207,0.0,2.0,99,0.01,,,0.01,weatherlink.com 1.10,2013-07-31 12:55:00,
2013-07-31 08:10:00,68.3,68.0,29.98,WSW,257,2.0,2.0,99,0.00,,,0.01,weatherlink.com 1.10,2013-07-31 13:10:00,
2013-07-31 08:25:00,68.4,68.0,29.98,West,274,2.0,3.0,99,0.00,,,0.01,weatherlink.com 1.10,2013-07-31 13:25:00,
2013-07-31 08:40:00,68.7,68.0,29.99,West,276,3.0,4.0,99,0.00,,,0.01,weatherlink.com 1.10,2013-07-31 13:40:00,
2013-07-31 08:55:00,69.5,69.0,29.98,WNW,290,2.0,4.0,99,0.00,,,0.01,weatherlink.com 1.10,2013-07-31 13:55:00,
2013-07-31 09:10:00,70.2,69.0,29.98,WNW,284,2.0,5.0,97,0.00,,,0.01,weatherlink.com 1.10,2013-07-31 14:10:00,
2013-07-31 09:25:00,70.7,70.0,29.97,West,271,1.0,4.0,96,0.00,,,0.01,weatherlink.com 1.10,2013-07-31 14:25:00,
2013-07-31 09:40:00,71.4,70.0,29.98,WNW,284,0.0,3.0,95,0.00,,,0.01,weatherlink.com 1.10,2013-07-31 14:40:00,
2013-07-31 09:55:00,71.2,70.0,29.98,WNW,302,1.0,1.0,95,0.00,,,0.01,weatherlink.com 1.10,2013-07-31 14:55:00,
2013-07-31 10:10:00,71.2,69.0,29.98,WNW,290,1.0,3.0,94,0.00,,,0.01,weatherlink.com 1.10,2013-07-31 15:10:00,
2013-07-31 10:25:00,71.1,69.0,29.98,NW,316,1.0,3.0,94,0.00,,,0.01,weatherlink.com 1.10,2013-07-31 15:25:00,
2013-07-31 10:40:00,71.2,69.0,29.98,WNW,293,0.0,2.0,94,0.00,,,0.01,weatherlink.com 1.10,2013-07-31 15:40:00,
2013-07-31 10:55:00,71.0,69.0,29.98,NW,308,1.0,4.0,93,0.00,,,0.01,weatherlink.com 1.10,2013-07-31 15:55:00,
2013-07-31 11:10:00,70.7,69.0,29.98,NW,307,0.0,2.0,94,0.00,,,0.01,weatherlink.com 1.10,2013-07-31 16:10:00,
2013-07-31 11:25:00,71.3,70.0,29.98,WNW,293,1.0,2.0,94,0.00,,,0.01,weatherlink.com 1.10,2013-07-31 16:25:00,
2013-07-31 11:40:00,71.7,69.0,29.98,WNW,292,1.0,2.0,91,0.00,,,0.01,weatherlink.com 1.10,2013-07-31 16:40:00,
2013-07-31 11:55:00,72.0,70.0,29.98,WNW,290,0.0,3.0,92,0.00,,,0.01,weatherlink.com 1.10,2013-07-31 16:55:00,
2013-07-31 12:10:00,72.1,69.0,29.98,NNW,331,0.0,2.0,91,0.00,,,0.01,weatherlink.com 1.10,2013-07-31 17:10:00,
2013-07-31 12:25:00,71.8,69.0,29.97,WNW,300,1.0,2.0,92,0.00,,,0.01,weatherlink.com 1.10,2013-07-31 17:25:00,
2013-07-31 12:40:00,72.3,70.0,29.97,West,281,2.0,3.0,91,0.00,,,0.01,weatherlink.com 1.10,2013-07-31 17:40:00,
2013-07-31 12:55:00,72.3,70.0,29.97,West,280,0.0,2.0,91,0.00,,,0.01,weatherlink.com 1.10,2013-07-31 17:55:00,
2013-07-31 13:10:00,73.3,70.0,29.97,NW,305,1.0,2.0,89,0.00,,,0.01,weatherlink.com 1.10,2013-07-31 18:10:00,
2013-07-31 13:25:00,72.3,69.0,29.96,WNW,302,1.0,3.0,90,0.00,,,0.01,weatherlink.com 1.10,2013-07-31 18:25:00,
2013-07-31 13:40:00,71.9,69.0,29.96,NW,304,0.0,2.0,91,0.00,,,0.01,weatherlink.com 1.10,2013-07-31 18:40:00,
2013-07-31 13:55:00,71.9,69.0,29.96,NW,315,0.0,1.0,91,0.00,,,0.01,weatherlink.com 1.10,2013-07-31 18:55:00,
2013-07-31 14:10:00,71.2,69.0,29.97,West,274,0.0,3.0,92,0.00,,,0.01,weatherlink.com 1.10,2013-07-31 19:10:00,
2013-07-31 14:25:00,71.5,69.0,29.97,WNW,301,0.0,2.0,93,0.00,,,0.01,weatherlink.com 1.10,2013-07-31 19:25:00,
2013-07-31 14:40:00,72.5,70.0,29.96,WNW,302,0.0,3.0,92,0.00,,,0.01,weatherlink.com 1.10,2013-07-31 19:40:00,
2013-07-31 14:55:00,73.3,70.0,29.96,West,281,1.0,3.0,89,0.00,,,0.01,weatherlink.com 1.10,2013-07-31 19:55:00,
2013-07-31 15:10:00,74.3,71.0,29.96,NW,315,2.0,4.0,88,0.00,,,0.01,weatherlink.com 1.10,2013-07-31 20:10:00,
2013-07-31 15:25:00,74.9,70.0,29.95,NW,321,1.0,3.0,85,0.00,,,0.01,weatherlink.com 1.10,2013-07-31 20:25:00,
2013-07-31 15:40:00,75.1,70.0,29.96,NW,316,2.0,4.0,85,0.00,,,0.01,weatherlink.com 1.10,2013-07-31 20:40:00,
2013-07-31 15:56:00,75.2,71.0,29.95,NW,321,1.0,6.0,85,0.00,,,0.01,weatherlink.com 1.10,2013-07-31 20:56:00,
2013-07-31 16:11:00,74.2,70.0,29.96,NNW,328,1.0,4.0,85,0.00,,,0.01,weatherlink.com 1.10,2013-07-31 21:11:00,
2013-07-31 16:26:00,74.3,70.0,29.95,WNW,294,0.0,4.0,86,0.00,,,0.01,weatherlink.com 1.10,2013-07-31 21:26:00,
2013-07-31 16:41:00,74.2,69.0,29.95,NW,305,1.0,4.0,84,0.00,,,0.01,weatherlink.com 1.10,2013-07-31 21:41:00,
2013-07-31 16:56:00,73.6,69.0,29.95,NW,323,2.0,5.0,85,0.00,,,0.01,weatherlink.com 1.10,2013-07-31 21:56:00,
2013-07-31 17:11:00,74.2,70.0,29.95,WNW,292,3.0,4.0,87,0.00,,,0.01,weatherlink.com 1.10,2013-07-31 22:11:00,
2013-07-31 17:26:00,74.1,69.0,29.94,NW,316,3.0,5.0,84,0.00,,,0.01,weatherlink.com 1.10,2013-07-31 22:26:00,
2013-07-31 17:41:00,73.9,69.0,29.94,WNW,291,1.0,3.0,84,0.00,,,0.01,weatherlink.com 1.10,2013-07-31 22:41:00,
2013-07-31 17:56:00,73.6,69.0,29.95,NW,316,2.0,6.0,84,0.00,,,0.01,weatherlink.com 1.10,2013-07-31 22:56:00,
2013-07-31 18:11:00,73.0,68.0,29.94,NW,316,0.0,3.0,84,0.00,,,0.01,weatherlink.com 1.10,2013-07-31 23:11:00,
2013-07-31 18:26:00,74.8,69.0,29.94,NW,305,1.0,2.0,82,0.00,,,0.01,weatherlink.com 1.10,2013-07-31 23:26:00,
2013-07-31 18:41:00,73.4,68.0,29.94,NW,326,0.0,2.0,84,0.00,,,0.01,weatherlink.com 1.10,2013-07-31 23:41:00,
2013-07-31 18:56:00,72.5,67.0,29.94,WNW,300,1.0,2.0,84,0.00,,,0.01,weatherlink.com 1.10,2013-07-31 23:56:00,
2013-07-31 19:11:00,70.6,67.0,29.94,WNW,295,0.0,1.0,89,0.00,,,0.01,weatherlink.com 1.10,2013-08-01 00:11:00,
2013-07-31 19:26:00,71.9,68.0,29.93,West,276,0.0,2.0,86,0.00,,,0.01,weatherlink.com 1.10,2013-08-01 00:26:00,
2013-07-31 19:41:00,70.5,67.0,29.94,WNW,291,0.0,1.0,87,0.00,,,0.01,weatherlink.com 1.10,2013-08-01 00:41:00,
2013-07-31 19:56:00,69.2,66.0,29.93,WNW,293,0.0,1.0,90,0.00,,,0.01,weatherlink.com 1.10,2013-08-01 00:56:00,
2013-07-31 20:11:00,68.1,66.0,29.93,WNW,293,0.0,1.0,92,0.00,,,0.01,weatherlink.com 1.10,2013-08-01 01:11:00,
2013-07-31 20:26:00,67.1,65.0,29.93,WNW,293,0.0,1.0,94,0.00,,,0.01,weatherlink.com 1.10,2013-08-01 01:26:00,
2013-07-31 20:41:00,66.4,65.0,29.94,WNW,295,0.0,1.0,95,0.00,,,0.01,weatherlink.com 1.10,2013-08-01 01:41:00,
2013-07-31 21:11:00,65.7,65.0,29.95,WNW,302,1.0,2.0,96,0.00,,,0.01,weatherlink.com 1.10,2013-08-01 02:11:00,
2013-07-31 21:26:00,65.3,64.0,29.96,NW,305,0.0,1.0,95,0.00,,,0.01,weatherlink.com 1.10,2013-08-01 02:26:00,
2013-07-31 21:56:00,62.7,62.0,29.96,NW,304,0.0,0.0,96,0.00,,,0.01,weatherlink.com 1.10,2013-08-01 02:56:00,
2013-07-31 22:11:00,62.4,62.0,29.96,NW,304,0.0,0.0,97,0.00,,,0.01,weatherlink.com 1.10,2013-08-01 03:11:00,
2013-07-31 22:41:00,63.5,63.0,29.96,West,274,0.0,1.0,98,0.00,,,0.01,weatherlink.com 1.10,2013-08-01 03:41:00,
2013-07-31 22:56:00,64.0,64.0,29.96,West,264,0.0,1.0,98,0.00,,,0.01,weatherlink.com 1.10,2013-08-01 03:56:00,
2013-07-31 23:11:00,64.4,64.0,29.96,West,271,0.0,1.0,98,0.00,,,0.01,weatherlink.com 1.10,2013-08-01 04:11:00,
2013-07-31 23:26:00,64.5,64.0,29.96,West,278,0.0,1.0,98,0.00,,,0.01,weatherlink.com 1.10,2013-08-01 04:26:00,
2013-07-31 23:42:00,65.2,65.0,29.96,West,260,2.0,4.0,98,0.00,,,0.01,weatherlink.com 1.10,2013-08-01 04:42:00,